TimeMDT,TemperatureF,Dew PointF,Humidity,Sea Level PressureIn,VisibilityMPH,Wind Direction,Wind SpeedMPH,Gust SpeedMPH,PrecipitationIn,Events,Conditions,WindDirDegrees,DateUTC
12:53 AM,69.1,60.1,73,30.08,10.0,SSE,6.9,-,N/A,,Partly Cloudy,150,2013-07-17 06:53:00
1:49 AM,68.0,60.8,78,30.21,10.0,South,3.5,-,N/A,,Overcast,180,2013-07-17 07:49:00
1:53 AM,68.0,61.0,78,30.06,10.0,South,3.5,-,N/A,,Overcast,170,2013-07-17 07:53:00
2:53 AM,69.1,61.0,75,30.06,10.0,Calm,Calm,-,N/A,,Overcast,0,2013-07-17 08:53:00
3:18 AM,69.8,60.8,73,30.21,10.0,Calm,Calm,-,N/A,,Mostly Cloudy,0,2013-07-17 09:18:00
3:38 AM,69.8,62.6,78,30.21,10.0,Calm,Calm,-,N/A,,Mostly Cloudy,0,2013-07-17 09:38:00
3:53 AM,69.1,62.1,78,30.06,10.0,North,3.5,-,N/A,,Overcast,10,2013-07-17 09:53:00
4:53 AM,69.1,63.0,81,30.06,10.0,East,5.8,-,N/A,,Overcast,100,2013-07-17 10:53:00
5:20 AM,69.8,62.6,78,30.22,10.0,East,4.6,-,N/A,,Overcast,80,2013-07-17 11:20:00
5:53 AM,69.1,64.0,84,30.06,10.0,NE,4.6,-,N/A,,Overcast,50,2013-07-17 11:53:00
6:29 AM,69.8,62.6,78,30.23,10.0,NE,8.1,-,N/A,Thunderstorm,Overcast,50,2013-07-17 12:29:00
6:43 AM,68.0,64.4,88,30.24,5.0,East,5.8,-,0.01,Rain-Thunderstorm,Rain,80,2013-07-17 12:43:00
6:48 AM,68.0,64.4,88,30.24,4.0,East,6.9,-,0.03,Rain-Thunderstorm,Rain,80,2013-07-17 12:48:00
6:53 AM,66.9,64.9,93,30.10,3.0,East,8.1,-,0.05,Rain-Thunderstorm,Rain,80,2013-07-17 12:53:00
7:01 AM,66.2,64.4,94,30.24,2.5,ESE,10.4,-,0.04,Rain-Thunderstorm,Heavy Rain,110,2013-07-17 13:01:00
7:09 AM,64.4,62.6,94,30.25,2.0,East,8.1,-,0.09,Rain,Heavy Rain,100,2013-07-17 13:09:00
7:18 AM,64.4,62.6,94,30.25,1.8,ESE,6.9,-,0.17,Rain,Heavy Rain,120,2013-07-17 13:18:00
7:27 AM,64.4,62.6,94,30.26,2.0,East,6.9,-,0.23,Rain,Heavy Rain,100,2013-07-17 13:27:00
7:49 AM,64.4,62.6,94,30.26,5.0,Calm,Calm,-,0.30,Rain,Light Rain,0,2013-07-17 13:49:00
7:53 AM,64.0,61.0,90,30.12,6.0,Calm,Calm,-,0.30,Rain,Light Rain,0,2013-07-17 13:53:00
8:00 AM,64.4,62.6,94,30.27,1.8,Calm,Calm,-,0.06,Rain,Heavy Rain,0,2013-07-17 14:00:00
8:10 AM,62.6,62.6,100,30.27,0.5,Calm,Calm,-,0.17,Fog-Rain,Heavy Rain,0,2013-07-17 14:10:00
8:22 AM,64.4,60.8,88,30.27,1.2,Calm,Calm,-,0.24,Rain,Heavy Rain,0,2013-07-17 14:22:00
8:32 AM,64.4,62.6,94,30.28,3.0,Calm,Calm,-,0.24,Rain,Light Rain,0,2013-07-17 14:32:00
8:44 AM,64.4,62.6,94,30.28,9.0,Calm,Calm,-,0.24,Rain,Light Rain,0,2013-07-17 14:44:00
8:53 AM,66.0,63.0,90,30.14,8.0,NE,3.5,-,0.25,Rain,Light Rain,50,2013-07-17 14:53:00
9:05 AM,64.4,62.6,94,30.28,2.5,NNE,5.8,-,0.02,Rain,Rain,30,2013-07-17 15:05:00
9:16 AM,64.4,62.6,94,30.29,1.0,East,4.6,-,0.09,Rain,Heavy Rain,80,2013-07-17 15:16:00
9:31 AM,64.4,62.6,94,30.29,1.0,Calm,Calm,-,0.18,Rain,Heavy Rain,0,2013-07-17 15:31:00
9:40 AM,64.4,62.6,94,30.29,1.2,ENE,4.6,-,0.22,Rain,Heavy Rain,70,2013-07-17 15:40:00
9:49 AM,64.4,62.6,94,30.29,1.2,ENE,5.8,-,0.27,Rain,Heavy Rain,60,2013-07-17 15:49:00
9:53 AM,64.0,63.0,96,30.17,1.2,East,6.9,-,0.29,Rain,Heavy Rain,80,2013-07-17 15:53:00
10:25 AM,64.4,62.6,94,30.29,1.2,NNE,4.6,-,0.22,Rain,Heavy Rain,30,2013-07-17 16:25:00
10:34 AM,64.4,62.6,94,30.30,2.0,NNE,6.9,-,0.26,Rain,Rain,30,2013-07-17 16:34:00
10:48 AM,64.4,62.6,94,30.29,3.0,NNE,5.8,-,0.30,Rain,Rain,30,2013-07-17 16:48:00
10:53 AM,64.9,63.0,93,30.17,2.5,NE,5.8,-,0.32,Rain,Heavy Rain,40,2013-07-17 16:53:00
11:48 AM,66.2,64.4,94,30.29,4.0,North,5.8,-,0.16,Rain,Light Rain,360,2013-07-17 17:48:00
11:53 AM,66.0,64.0,93,30.16,3.0,North,4.6,-,0.16,Rain,Rain,360,2013-07-17 17:53:00
12:45 PM,66.2,64.4,94,30.28,8.0,NNW,5.8,-,0.02,Rain,Light Rain,340,2013-07-17 18:45:00
12:53 PM,66.0,64.0,93,30.16,9.0,NNW,8.1,-,0.03,Rain,Light Rain,340,2013-07-17 18:53:00
1:07 PM,66.2,64.4,94,30.28,6.0,North,5.8,-,0.01,Rain,Light Rain,360,2013-07-17 19:07:00
1:41 PM,66.2,64.4,94,30.29,1.5,North,3.5,-,0.10,Rain,Rain,360,2013-07-17 19:41:00
1:49 PM,66.2,64.4,94,30.29,0.5,NW,6.9,-,0.17,Fog-Rain,Rain,320,2013-07-17 19:49:00
1:53 PM,66.0,64.0,93,30.17,1.8,NW,6.9,-,0.18,Rain,Light Rain,320,2013-07-17 19:53:00
1:55 PM,66.2,64.4,94,30.28,3.0,NW,8.1,-,0.00,Rain,Light Rain,320,2013-07-17 19:55:00
2:37 PM,66.2,64.4,94,30.27,2.0,NNW,9.2,-,0.10,Rain,Rain,340,2013-07-17 20:37:00
2:53 PM,66.9,64.9,93,30.14,3.0,NNW,9.2,-,0.13,Rain,Rain,340,2013-07-17 20:53:00
3:27 PM,66.2,64.4,94,30.26,2.5,NNW,9.2,-,0.06,Rain,Rain,340,2013-07-17 21:27:00
3:37 PM,66.2,64.4,94,30.26,3.0,NNW,9.2,-,0.07,Rain,Light Rain,340,2013-07-17 21:37:00
3:53 PM,66.9,64.0,90,30.13,4.0,NNW,9.2,-,0.10,Rain,Light Rain,340,2013-07-17 21:53:00
4:31 PM,68.0,64.4,88,30.25,10.0,North,8.1,-,0.01,Rain,Light Rain,350,2013-07-17 22:31:00
4:53 PM,68.0,64.9,90,30.12,10.0,North,9.2,-,0.01,Rain,Light Rain,350,2013-07-17 22:53:00
5:22 PM,68.0,64.4,88,30.24,1.8,NE,10.4,-,0.03,Rain,Rain,40,2013-07-17 23:22:00
5:30 PM,66.2,64.4,94,30.24,3.0,NE,9.2,-,0.03,Rain,Light Rain,50,2013-07-17 23:30:00
5:38 PM,66.2,64.4,94,30.24,8.0,NNE,8.1,-,0.03,Rain,Light Rain,30,2013-07-17 23:38:00
5:53 PM,68.0,64.0,87,30.11,10.0,North,8.1,-,0.03,Rain,Light Rain,10,2013-07-17 23:53:00
6:00 PM,68.0,64.4,88,30.23,10.0,North,6.9,-,0.00,Rain,Light Rain,350,2013-07-18 00:00:00
6:53 PM,68.0,64.0,87,30.11,10.0,North,5.8,-,0.01,Rain,Light Rain,360,2013-07-18 00:53:00
7:53 PM,68.0,64.9,90,30.13,10.0,North,4.6,-,0.01,Rain,Light Rain,350,2013-07-18 01:53:00
8:53 PM,66.9,64.9,93,30.14,2.0,North,6.9,-,0.10,Rain,Heavy Rain,360,2013-07-18 02:53:00
9:00 PM,66.2,64.4,94,30.26,3.0,North,5.8,-,0.01,Rain,Light Rain,350,2013-07-18 03:00:00
9:14 PM,66.2,64.4,94,30.26,7.0,NNW,8.1,-,0.01,Rain,Light Rain,330,2013-07-18 03:14:00
9:28 PM,66.2,64.4,94,30.26,8.0,NNW,5.8,-,0.02,Rain,Light Rain,330,2013-07-18 03:28:00
9:53 PM,66.9,64.9,93,30.14,8.0,WNW,6.9,-,0.03,Rain,Light Rain,300,2013-07-18 03:53:00
10:04 PM,66.2,64.4,94,30.26,5.0,NW,6.9,-,0.01,Rain,Light Rain,310,2013-07-18 04:04:00
10:24 PM,66.2,64.4,94,30.26,2.5,NW,5.8,-,0.07,Rain,Rain,310,2013-07-18 04:24:00
10:31 PM,66.2,64.4,94,30.26,5.0,NW,5.8,-,0.07,Rain,Light Rain,320,2013-07-18 04:31:00
10:46 PM,66.2,64.4,94,30.27,10.0,Calm,Calm,-,0.08,Rain,Light Rain,0,2013-07-18 04:46:00
10:53 PM,66.0,64.0,93,30.15,8.0,NNW,4.6,-,0.08,Rain,Light Rain,340,2013-07-18 04:53:00
11:06 PM,66.2,64.4,94,30.26,8.0,NNW,5.8,-,0.01,Rain,Light Rain,330,2013-07-18 05:06:00
11:20 PM,66.2,64.4,94,30.26,4.0,NNW,4.6,-,0.03,Rain,Rain,330,2013-07-18 05:20:00
11:28 PM,66.2,64.4,94,30.27,4.0,NNW,5.8,-,0.03,Rain,Light Rain,340,2013-07-18 05:28:00
11:53 PM,66.0,64.0,93,30.14,8.0,NNW,5.8,-,0.05,Rain,Light Rain,340,2013-07-18 05:53:00